Temp
5 4 4 4 4 4 4 4 4 4 4 4 4 4 4 4 4 4 4 4 4 4 4 4 4 4 5 5 5 5 6 6 6 6 6 6 5 4 4 3 4 4 4
4 4 4 4 4 4 4 4 4 4 4 4 4 4 4 4 4 4 4 4 4 4 4 4 4 4 4 5 5 5 5 5 5 5 6 6 5 4 4 4 4 4 4
4 4 4 4 4 4 4 4 4 4 4 4 4 4 4 4 4 5 4 5 5 5 4 4 4 4 4 4 4 5 5 5 4 4 4 5 5 4 4 5 4 4 3
4 5 5 5 5 5 5 5 5 4 4 4 4 4 4 4 4 4 4 4 4 4 4 4 4 4 3 3 4 4 4 4 5 5 5 4 5 4 3 3 4 4 2
4 4 4 4 5 5 5 5 5 5 4 4 4 4 4 4 4 4 4 4 4 4 4 4 4 3 3 3 3 3 3 3 4 5 5 5 4 4 3 2 3 4 3
5 4 4 5 5 5 5 5 5 5 4 4 4 4 4 4 4 4 4 3 4 4 4 4 3 4 3 2 2 2 3 3 3 3 4 5 4 3 3 2 2 2 3
5 5 4 5 5 5 5 5 4 4 4 4 4 4 4 4 4 4 4 4 4 3 3 3 3 3 2 1 2 2 3 3 3 2 2 2 2 2 2 2 2 2 2
5 4 4 4 5 5 5 4 4 4 4 4 4 3 4 4 4 4 4 4 4 4 3 3 2 2 1 2 2 2 2 3 2 2 2 2 1 1 0 1 1 1 2
5 5 5 4 5 5 5 4 4 4 4 4 4 4 4 4 4 4 4 5 4 4 4 3 2 2 2 1 1 1 2 2 2 1 1 1 0 -0 -1 -1 -1 -1 -1
5 5 5 5 5 5 5 5 5 4 4 5 4 4 4 4 4 4 4 4 4 4 4 4 3 2 1 1 1 1 1 1 -0 0 2 1 0 -0 -1 -2 -2 -1 -1
5 5 5 5 5 5 5 6 6 5 4 4 4 4 4 4 4 4 4 3 4 4 4 4 3 2 1 1 1 1 -0 0 -0 2 1 0 -0 -1 -1 -2 -2 -2 -1
5 5 5 5 5 6 5 5 6 6 5 5 5 6 6 5 4 4 4 4 3 3 4 4 3 2 2 2 2 1 1 1 2 2 1 -1 -2 -2 -2 -2 -2 -2 -2
5 5 6 5 6 6 5 6 6 6 6 7 7 7 7 6 6 5 4 4 3 3 3 3 2 2 2 2 2 2 2 1 0 -0 -1 -2 -2 -2 -3 -2 -2 -2 -1
5 5 6 6 6 6 6 7 7 7 7 7 7 7 7 7 7 6 5 5 4 4 4 3 3 3 3 3 3 2 2 -0 -1 -2 -2 -2 -2 -2 -2 -2 -2 -2 -2
6 6 6 6 6 7 7 7 7 7 7 7 7 7 7 7 7 5 5 4 4 3 3 3 3 3 2 2 2 2 1 -1 -2 -2 -3 -3 -3 -3 -3 -3 -2 -2 -2
6 6 7 7 7 7 7 8 7 7 7 7 7 7 7 6 6 6 5 5 4 3 3 3 3 2 2 1 1 2 1 -1 -2 -2 -2 -2 -3 -3 -2 -2 -2 -2 -2
6 6 7 6 8 8 8 8 8 8 7 7 7 7 7 7 6 6 5 4 4 2 3 3 3 2 1 1 1 2 -1 -1 -1 -2 -2 -2 -2 -2 -2 -2 -2 -2 -2
5 6 6 7 8 8 8 8 8 8 8 8 8 7 7 6 6 6 5 4 4 3 3 3 2 1 1 1 2 1 -2 -1 -1 -2 -3 -2 -2 -3 -3 -2 -2 -2 -2
6 7 7 7 8 8 8 8 9 9 8 8 8 8 7 6 6 5 4 3 3 4 3 2 2 1 1 2 2 1 -1 -1 -1 -1 -2 -2 -2 -2 -2 -2 -2 -2 -2
6 6 6 7 8 8 9 9 9 9 8 8 8 7 5 6 6 6 5 4 3 3 3 2 1 1 2 2 1 -1 -1 -1 -1 -1 -1 -1 -2 -2 -2 -2 -1 -1 -1
7 7 7 7 9 9 8 8 8 8 8 8 7 5 4 5 5 5 5 4 3 3 2 1 2 1 2 1 1 -1 -1 -1 -1 -1 -1 -1 -1 -1 -1 -1 -1 -1 -1
7 7 8 8 8 8 8 8 8 7 7 6 6 5 4 5 5 4 4 2 1 1 1 0 1 1 1 0 -1 -1 -1 -0 -0 -0 -1 -0 -1 -0 -0 -0 -0 -0 0
7 8 8 9 8 7 8 7 7 6 6 5 4 4 4 4 4 2 2 1 1 1 0 0 0 1 0 -1 -2 -1 -1 -0 -0 -0 -0 -0 0 0 0 0 0 1 1
8 8 8 8 7 7 6 6 5 4 4 4 3 3 2 1 2 2 1 0 1 0 1 0 0 -0 -1 -2 -1 -0 -0 -0 0 0 0 1 1 1 1 1 1 2 1
8 8 8 7 7 6 5 5 4 3 3 2 2 2 2 0 1 1 1 -0 0 -0 0 -0 -0 -1 -2 -1 -0 0 0 0 0 1 1 1 1 1 1 2 2 2 3
7 7 6 6 5 4 4 3 3 2 2 1 1 0 0 -0 -1 -1 -1 -1 -0 -0 -0 -0 -1 -1 -2 -1 -0 0 0 1 1 1 1 1 1 2 3 3 3 3 3
Height
1552 1551 1549 1547 1546 1546 1544 1542 1539 1536 1534 1533 1531 1530 1528 1526 1524 1522 1520 1518 1516 1513 1511 1509 1506 1503 1500 1497 1494 1491 1487 1484 1481 1476 1474 1470 1468 1465 1462 1458 1455 1452 1451
1552 1551 1551 1550 1549 1547 1545 1543 1541 1539 1537 1534 1532 1530 1528 1527 1525 1523 1521 1519 1517 1515 1512 1510 1507 1504 1501 1497 1494 1490 1487 1484 1481 1477 1473 1469 1466 1463 1460 1457 1454 1450 1447
1552 1552 1552 1551 1550 1549 1547 1545 1543 1541 1539 1536 1533 1531 1529 1527 1526 1524 1522 1520 1518 1516 1513 1510 1507 1503 1500 1497 1494 1489 1486 1482 1479 1475 1471 1467 1464 1461 1457 1454 1450 1447 1443
1552 1552 1552 1552 1551 1549 1548 1546 1544 1542 1540 1537 1534 1532 1530 1529 1526 1525 1523 1520 1518 1516 1513 1510 1507 1503 1500 1496 1492 1489 1484 1480 1476 1472 1468 1465 1461 1457 1454 1451 1447 1443 1439
1552 1552 1552 1551 1551 1549 1547 1546 1544 1543 1541 1538 1535 1533 1531 1530 1526 1523 1521 1520 1518 1515 1512 1509 1506 1502 1498 1494 1490 1486 1482 1478 1473 1468 1464 1461 1457 1454 1451 1448 1445 1440 1437
1551 1551 1551 1551 1551 1549 1547 1545 1544 1543 1540 1538 1535 1533 1532 1531 1527 1525 1522 1519 1518 1515 1511 1508 1505 1502 1497 1492 1487 1483 1480 1475 1471 1466 1461 1456 1454 1451 1447 1445 1442 1437 1432
1550 1551 1551 1550 1549 1548 1547 1545 1543 1541 1540 1538 1536 1534 1533 1531 1528 1526 1523 1521 1518 1514 1511 1508 1504 1500 1495 1488 1483 1479 1475 1471 1466 1462 1459 1455 1451 1448 1445 1441 1438 1434 1429
1549 1550 1549 1548 1548 1547 1546 1544 1542 1541 1539 1537 1536 1535 1534 1532 1529 1526 1523 1520 1517 1514 1511 1508 1504 1499 1493 1486 1480 1477 1472 1468 1463 1460 1456 1452 1448 1444 1441 1437 1433 1428 1424
1548 1549 1549 1547 1547 1546 1545 1543 1541 1541 1539 1538 1536 1535 1533 1531 1528 1525 1522 1519 1517 1514 1510 1507 1503 1498 1491 1485 1478 1474 1469 1465 1460 1455 1450 1446 1442 1438 1434 1430 1428 1424 1420
1548 1548 1548 1548 1548 1547 1545 1543 1542 1541 1540 1539 1537 1534 1532 1530 1527 1525 1522 1519 1517 1513 1509 1505 1500 1496 1490 1484 1477 1473 1466 1460 1453 1448 1446 1442 1438 1433 1428 1426 1423 1420 1417
1547 1548 1549 1549 1548 1547 1546 1544 1543 1541 1540 1538 1536 1534 1531 1529 1527 1524 1522 1519 1516 1512 1507 1503 1500 1494 1489 1482 1477 1473 1465 1456 1450 1447 1443 1439 1435 1430 1427 1423 1419 1417 1414
1546 1548 1549 1549 1548 1547 1545 1544 1542 1540 1539 1537 1536 1533 1531 1529 1526 1523 1520 1517 1514 1511 1506 1502 1497 1492 1486 1480 1475 1469 1461 1454 1451 1445 1440 1436 1431 1426 1423 1418 1416 1413 1410
1546 1547 1548 1548 1547 1546 1544 1542 1541 1539 1537 1536 1534 1532 1530 1527 1524 1520 1518 1515 1511 1507 1504 1499 1493 1488 1483 1478 1473 1466 1460 1455 1449 1443 1437 1431 1426 1422 1418 1415 1412 1410 1406
1545 1546 1546 1546 1546 1544 1543 1542 1540 1538 1536 1534 1531 1529 1527 1524 1521 1519 1517 1513 1510 1506 1502 1496 1491 1486 1482 1477 1470 1465 1459 1452 1446 1438 1432 1426 1421 1418 1416 1413 1410 1407 1405
1544 1545 1545 1545 1544 1543 1541 1540 1538 1536 1535 1533 1531 1528 1525 1522 1519 1516 1513 1510 1506 1503 1497 1493 1489 1484 1479 1474 1469 1463 1457 1450 1442 1436 1429 1424 1420 1417 1414 1411 1408 1405 1403
1543 1543 1544 1543 1542 1541 1540 1538 1536 1533 1532 1530 1528 1525 1522 1518 1515 1511 1509 1506 1502 1498 1494 1490 1486 1483 1478 1473 1467 1461 1455 1447 1440 1434 1428 1424 1419 1416 1413 1410 1407 1404 1402
1541 1542 1542 1541 1541 1540 1539 1537 1534 1531 1529 1526 1524 1521 1517 1514 1511 1508 1505 1502 1499 1496 1492 1489 1485 1481 1477 1472 1466 1460 1453 1445 1439 1433 1427 1423 1419 1416 1412 1408 1406 1403 1401
1540 1540 1541 1541 1540 1539 1537 1535 1532 1529 1526 1523 1520 1517 1514 1511 1508 1504 1502 1499 1497 1493 1491 1487 1484 1481 1476 1471 1465 1460 1452 1445 1438 1432 1427 1422 1419 1415 1411 1408 1406 1403 1401
1539 1540 1540 1540 1539 1537 1535 1532 1529 1526 1524 1521 1517 1515 1511 1509 1505 1503 1500 1498 1496 1493 1490 1487 1484 1480 1475 1470 1465 1459 1450 1444 1438 1432 1427 1423 1419 1415 1412 1409 1406 1404 1401
1538 1538 1538 1538 1537 1535 1532 1530 1527 1525 1522 1519 1516 1513 1511 1508 1505 1503 1500 1497 1495 1494 1490 1487 1483 1479 1474 1469 1464 1458 1449 1443 1437 1432 1427 1423 1420 1416 1413 1410 1407 1404 1401
1537 1537 1536 1536 1534 1533 1531 1529 1526 1524 1521 1518 1516 1512 1511 1508 1505 1502 1500 1498 1496 1494 1490 1487 1483 1479 1474 1469 1463 1455 1448 1442 1436 1432 1427 1423 1420 1417 1414 1411 1408 1405 1403
1535 1535 1535 1534 1533 1531 1530 1528 1526 1523 1521 1518 1516 1513 1510 1508 1505 1503 1501 1499 1497 1495 1491 1487 1483 1479 1474 1468 1462 1453 1446 1440 1436 1432 1427 1424 1421 1418 1415 1413 1410 1408 1405
1533 1534 1533 1532 1531 1530 1529 1527 1525 1522 1520 1518 1515 1513 1511 1508 1506 1504 1502 1500 1498 1495 1491 1488 1484 1479 1474 1468 1460 1452 1445 1440 1436 1432 1429 1425 1422 1420 1418 1415 1413 1410 1408
1532 1532 1532 1531 1530 1529 1528 1526 1524 1521 1519 1517 1515 1513 1511 1508 1507 1505 1502 1500 1498 1495 1492 1489 1484 1480 1474 1466 1458 1451 1446 1442 1438 1434 1431 1429 1426 1424 1421 1418 1415 1413 1410
1531 1531 1531 1530 1530 1528 1527 1525 1523 1521 1519 1517 1515 1513 1511 1508 1507 1506 1504 1501 1499 1496 1493 1489 1485 1479 1473 1464 1457 1452 1448 1444 1440 1437 1434 1432 1429 1427 1424 1422 1420 1417 1414
1530 1530 1530 1529 1528 1527 1525 1524 1522 1521 1519 1517 1515 1513 1511 1509 1506 1504 1503 1503 1500 1497 1494 1490 1485 1480 1472 1465 1458 1453 1448 1445 1443 1441 1438 1436 1435 1433 1429 1427 1424 1421 1418
Wind_Speed
6 7 8 8 9 9 9 10 11 12 12 12 11 10 10 11 12 12 12 13 13 14 14 14 15 15 15 15 14 14 13 14 16 17 15 17 16 16 16 17 17 16 16
4 5 6 6 7 7 9 9 10 11 12 11 9 9 10 9 9 11 11 12 13 14 15 15 15 15 15 15 15 15 12 14 15 17 18 17 14 16 15 19 17 17 18
3 4 5 5 6 7 7 8 9 10 12 13 10 10 10 11 9 11 11 12 13 14 14 16 16 16 17 17 17 17 17 16 18 17 19 17 16 16 17 17 17 17 19
3 3 3 4 4 5 5 6 7 8 10 12 11 10 11 10 10 10 11 12 13 14 15 15 16 16 16 17 17 18 20 21 22 20 21 21 17 14 17 19 20 20 23
4 2 1 3 4 5 6 5 5 6 8 10 12 10 10 11 13 14 15 13 14 15 15 16 16 19 19 19 19 21 21 22 22 23 22 20 20 21 17 16 21 23 21
4 2 0 2 3 5 6 7 4 5 6 8 10 11 11 10 15 16 16 14 14 15 16 17 17 17 20 23 23 22 20 21 21 21 21 22 22 22 19 19 22 25 26
5 2 1 2 3 4 5 7 6 5 5 7 8 8 10 10 13 15 16 14 15 16 16 17 19 19 21 26 25 22 19 19 18 17 19 20 23 21 21 25 25 25 27
5 2 3 4 4 2 4 5 5 5 5 6 6 7 8 9 12 15 15 14 16 15 16 17 19 21 23 28 27 22 21 18 17 19 19 22 23 25 25 25 25 26 23
5 1 2 2 3 4 5 5 6 5 5 5 5 6 7 8 13 16 18 14 16 15 16 17 18 22 26 28 26 24 22 21 20 22 23 24 23 23 22 19 19 20 19
5 3 3 5 5 6 8 9 11 7 7 5 4 5 7 8 12 15 17 14 16 17 16 16 19 25 27 26 27 22 27 25 25 21 19 18 19 21 21 17 18 19 20
6 5 4 3 2 3 4 6 7 7 5 6 6 6 7 8 11 15 16 14 15 16 17 18 19 25 27 27 29 26 29 26 21 20 19 19 19 17 14 17 18 16 17
8 5 4 2 2 2 3 4 5 6 6 8 8 10 10 11 13 13 15 16 17 17 16 19 20 26 27 27 26 32 31 25 23 22 21 19 21 18 16 19 15 14 14
8 5 4 4 4 4 4 6 6 7 8 9 10 11 12 12 13 14 16 18 18 20 17 24 23 25 24 25 28 28 27 23 23 23 22 23 27 18 18 16 14 14 12
7 5 4 4 4 5 5 7 8 8 9 11 12 13 13 14 13 13 16 17 18 20 20 22 20 21 24 26 29 30 27 23 28 27 25 24 19 16 15 16 13 12 12
6 5 4 5 5 5 6 8 9 9 8 10 11 12 14 15 15 17 15 16 16 19 22 19 20 23 25 27 29 30 27 29 29 27 25 23 18 15 15 14 12 12 10
6 4 5 4 4 5 7 9 11 9 10 13 15 16 17 18 19 21 17 22 19 24 20 17 18 20 25 26 29 31 24 35 26 27 22 19 17 15 16 13 12 10 11
7 6 5 5 5 6 8 10 12 11 13 13 16 18 19 17 18 20 17 18 21 21 14 20 21 20 24 26 28 29 26 32 23 23 21 18 16 16 14 14 12 12 10
7 7 6 5 6 7 9 11 10 11 14 16 16 16 17 18 19 15 15 17 17 14 17 19 18 19 24 26 27 27 29 28 26 22 20 18 16 16 15 13 11 12 10
7 5 7 6 6 9 9 10 10 12 15 17 17 16 16 18 18 14 8 14 17 18 18 17 18 20 23 25 26 24 30 27 24 25 21 17 16 15 13 12 11 11 11
8 7 7 6 7 9 9 10 11 14 16 17 17 14 17 17 14 14 15 16 12 18 16 17 18 18 22 24 25 23 32 25 25 22 22 18 15 15 15 12 13 12 11
6 6 7 6 7 9 9 11 13 14 15 15 15 14 18 13 14 14 15 15 16 14 15 18 19 20 22 24 23 24 29 27 24 21 20 18 13 12 13 10 11 11 10
6 5 5 6 8 7 9 10 12 13 14 14 13 12 15 12 13 13 12 13 13 14 15 16 18 20 22 23 22 31 29 25 20 19 20 15 13 13 13 12 11 11 10
6 5 5 6 6 7 8 10 11 11 11 11 11 11 11 11 12 11 10 11 12 14 16 17 18 21 21 22 24 29 25 22 19 18 16 18 15 13 13 15 14 11 9
4 4 4 3 4 5 7 9 9 10 10 9 9 9 10 9 10 11 10 10 14 14 15 17 19 21 22 24 28 23 21 19 18 17 14 13 13 12 14 15 13 13 11
3 2 1 1 3 6 8 8 8 8 8 9 9 9 9 10 9 9 9 10 11 14 16 17 20 21 23 25 26 20 17 15 17 14 12 12 15 13 14 16 15 15 15
2 2 2 3 5 6 6 6 7 8 8 8 8 8 8 9 8 5 8 11 12 14 17 18 21 22 25 26 25 20 17 13 13 15 15 16 16 16 17 15 15 15 16
Wind_Direction
32 31 37 46 45 31 36 37 38 36 36 36 36 31 27 26 27 32 33 31 28 23 20 15 11 8 7 1 355 345 338 333 323 322 320 321 322 319 317 319 318 315 311
41 50 55 48 39 35 40 39 41 39 31 24 24 24 26 22 20 20 17 15 10 7 4 4 1 0 359 354 353 349 338 333 324 320 324 325 325 323 324 324 324 319 311
75 65 59 51 44 39 36 35 36 35 28 23 27 26 24 22 21 11 6 1 359 356 355 355 354 352 349 344 340 334 327 323 317 313 308 315 317 318 322 321 321 319 309
121 99 72 54 27 17 16 12 16 21 20 21 25 27 30 25 23 11 358 355 355 355 352 350 349 349 346 343 340 331 326 320 312 310 308 309 308 317 321 322 320 320 316
150 128 90 26 16 12 7 1 3 12 10 17 21 22 24 19 16 21 15 2 356 352 351 349 345 344 341 342 340 329 327 318 313 310 306 307 309 318 316 319 316 315 316
165 173 29 12 6 356 5 11 6 3 3 17 22 32 34 32 34 24 12 7 358 355 353 348 346 339 341 336 332 330 329 319 313 309 305 307 308 312 314 319 316 314 313
169 184 282 304 319 330 350 0 5 10 13 14 23 31 28 25 28 19 12 10 2 356 354 352 350 343 340 344 341 340 331 325 313 314 309 307 308 312 315 312 309 305 304
174 192 312 319 314 338 345 6 24 22 20 17 26 27 27 19 18 14 11 3 1 356 354 351 352 350 342 346 344 337 333 330 323 314 306 306 303 302 302 299 302 302 299
178 171 348 42 74 72 47 45 45 36 19 25 35 29 20 12 15 12 8 1 355 353 350 347 347 350 349 347 345 338 333 327 317 314 311 317 320 315 307 299 304 304 299
172 146 111 105 99 82 66 57 53 45 24 35 18 3 2 356 355 358 1 360 351 350 349 351 343 344 347 347 347 345 332 326 323 324 327 316 321 316 310 305 305 302 302
167 152 146 137 110 69 48 40 34 27 17 8 356 338 333 335 345 351 350 351 343 347 344 343 342 336 346 354 357 342 340 340 333 327 322 320 322 323 313 299 303 306 299
171 170 186 214 240 283 332 319 339 346 335 335 335 342 339 324 326 337 344 341 340 337 332 334 331 338 349 350 346 341 347 346 334 327 320 320 324 324 312 315 312 307 298
177 193 219 241 250 276 307 310 320 310 319 322 324 328 332 336 332 323 331 333 335 336 326 328 332 338 337 344 343 346 347 341 334 327 318 310 320 325 324 323 324 319 316
183 205 224 239 254 279 309 315 316 313 311 315 316 316 318 324 327 331 331 327 326 330 323 327 328 334 336 339 345 346 346 345 335 334 338 335 334 334 332 334 328 330 326
191 205 229 254 267 279 305 309 313 302 298 312 322 322 319 318 317 309 313 332 327 324 321 326 329 336 338 338 342 345 346 341 346 345 346 345 345 342 341 339 332 329 328
197 222 244 250 268 294 312 323 325 315 295 307 311 310 309 303 304 301 312 311 314 329 321 321 327 338 342 340 342 343 342 344 348 349 348 349 348 349 339 343 336 346 337
209 226 245 257 275 298 314 322 319 318 321 321 320 323 329 324 316 312 301 314 326 314 325 335 335 335 341 341 342 344 340 348 349 357 357 353 353 350 355 353 351 348 339
219 242 239 255 277 304 318 320 324 327 330 329 324 322 319 328 328 334 314 327 336 343 340 338 335 337 340 341 342 342 338 354 358 358 0 360 359 352 354 352 349 345 341
233 240 253 263 285 304 317 322 321 327 329 333 334 334 348 333 330 338 344 346 345 342 339 345 343 337 339 341 341 339 338 354 355 3 6 360 1 3 5 358 360 359 346
245 240 237 268 299 314 317 320 325 328 329 332 335 339 337 339 338 337 345 343 356 344 348 347 345 344 341 341 340 337 342 350 358 358 2 5 3 1 359 2 360 7 16
231 246 277 281 310 316 321 325 328 329 333 337 341 337 344 1 347 345 340 348 348 349 347 347 347 345 344 342 342 335 348 351 356 355 360 3 6 13 2 2 354 17 34
232 254 269 296 315 323 325 331 333 336 338 339 341 342 357 355 352 352 352 351 350 356 350 345 350 349 345 344 338 341 349 352 360 356 2 13 16 14 26 31 43 49 37
241 257 279 304 314 332 338 336 337 343 345 345 350 353 356 357 356 0 350 357 1 355 353 359 353 350 347 345 337 350 356 5 7 8 21 20 23 45 51 39 41 43 20
231 253 290 301 321 340 343 342 345 351 3 2 1 2 352 357 5 357 10 5 5 2 1 357 353 351 350 345 352 357 3 8 11 14 23 41 40 45 33 40 37 21 6
224 259 287 335 355 349 348 356 4 8 5 5 4 6 359 1 23 6 8 9 8 7 2 360 355 356 351 359 3 7 5 3 8 32 40 43 43 41 14 20 28 25 27
189 142 103 31 8 7 13 17 14 11 8 8 11 12 15 17 13 32 29 20 17 9 4 2 359 360 357 9 12 7 14 33 53 57 65 40 26 28 33 35 33 33 36